METEOR 2-11 DEB, 40318

Orbit data source: Space-Track

METEOR 2-11 DEB, 40318 is space debris in LEO originally from a launch on Thu, 05 Jul 1984 UTC launched from the Plesetsk Missile And Space Complex (PKMTR). Debris objects in space refer to the collection of defunct objects orbiting the Earth. Examples of debris include non-operational satellites, rocket bodies, and fragments generated from explosions, collisions, or faulty payload assembly.

Loading next visibility...
Identifier
40318, 1984-072D
Orbit
LEO
Country
Flag of CISCIS
Related business
Manufacturer
Unknown
Mission
Spacecraft
Bus & Motor
Unknown
Mass
Unknown
Launch date (UTC)
1984-07-05 (41 years ago)
Launch vehicle
Unknown
Launch site
Plesetsk Missile And Space Complex (PKMTR)
Object type
Payload
Rocket body
Debris
Shape & HBR
Unknown
Radar Cross Section
Small (<0.1 m²)

Expand to show TLE details & history
Last TLE update: 3 days ago

TLE from 3 days ago
0 METEOR 2-11 DEB
1 40318U 84072D   25258.73002604  .00001531  00000-0  11249-2 0  9990
2 40318  82.5274 242.3895 0023922  75.3584 101.8992 13.94965036546932
Epoch: 2025-09-15T17:31Z
TLE epoch observation values (Epoch: 2025-09-15T17:31:14.249Z)
Latitude
2.35206°
Longitude
164.34257°
Altitude
917.561 km
Speed
7.391 km/s
True Right ascension
04h 08m 19s
True Declination
2° 20' 18"
Sunlit
Object was in daylight at epoch
Visualization orbit readout
Latitude
Unknown
Longitude
Unknown
Altitude
Unknown
Speed
Unknown
Apparent Right ascension
Unknown
Apparent Declination
Unknown
Sunlit
N/A
Visualization observer readout
Local Sidereal Time
03:27:25
Azimuth
Unknown
Elevation
Unknown
Doppler factor
Unknown
Orbital elements
Apogee altitude
925.851 km
Perigee altitude
890.99 km
Semi-major axis
7,286.557 km
Eccentricity
0.00239
Inclination
82.5274°
RAAN
242.3895°
Arg. of periapsis
75.3584°
True anomaly
102.16727°
Mean anomaly
101.8992°
Eccentric anomaly
102.03325°
Mean motion
3.48947 °/min
Orbital period
103.17 mins
BSTAR
0.0011249
Loading maneuver chart data...
Computing Atmospheric mass density...
Loading historical data...
Loading historical data...
Loading historical data...
Loading historical data...
Loading historical data...
Loading historical data...
Loading historical data...

Documentation

Showing up to 5 results
|